Location: Ash Observatory
(39.7321°N, 75.2004°W)
Time: 20:31:46
(UTC-04:00)

ISS - Pass Details

Date: 26 May 2019
Orbit: 408 x 418 km, 51.6° (Epoch: 16 June)

Event Time Altitude Azimuth Distance (km) Brightness Sun altitude
Rises 21:09:28 0° 296° (WNW) 2,349 2.0 -9.1°
Reaches altitude 10° 21:12:47 10° 331° (NNW) 1,491 0.3 -9.6°
Maximum altitude 21:14:00 12° 353° (N) 1,401 -0.4 -9.8°
Drops below altitude 10° 21:15:14 10° 15° (NNE) 1,495 -0.6 -10.0°
Sets 21:18:33 0° 50° (NE) 2,362 -0.1 -10.5°
